ATLAS 5 CENTAUR DEB, 44678

Orbit data source: Space-Track

ATLAS 5 CENTAUR DEB, 44678 is space debris in HEO originally from a launch on Wed, 17 Oct 2018 UTC launched from the Air Force Eastern Test Range (AFETR). Debris objects in space refer to the collection of defunct objects orbiting the Earth. Examples of debris include non-operational satellites, rocket bodies, and fragments generated from explosions, collisions, or faulty payload assembly.

Loading next visibility...
Identifier
44678, 2018-079AQ
Orbit
HEO
Country
Flag of USUS
Related business
Flag of USUnited Launch Alliance/Lockheed Martin (US)
Manufacturer
ULA Decatur
Mission
Spacecraft
Bus & Motor
Unknown
Mass
Unknown
Launch date (UTC)
2018-10-17 (8 years ago)
Launch vehicle
Unknown
Launch site
Air Force Eastern Test Range (AFETR)
Object type
Payload
Rocket body
Debris
Shape & HBR
Unknown shape, 1.1 m
Radar Cross Section
Medium (>0.1 m² and <1 m²)

Expand to show TLE details & history
Last TLE update: 3 days ago

TLE from 3 days ago
0 ATLAS 5 CENTAUR DEB
1 44678U 18079AQ  26165.15421019 -.00000089  00000-0  00000-0 0  9995
2 44678  13.3633  35.2427 4631867 313.2145  16.3758  1.82232184 51015
Epoch: 2026-06-14T03:42Z
TLE epoch observation values (Epoch: 2026-06-14T03:42:03.760Z)
Latitude
0.00007°
Longitude
77.21881°
Altitude
10,540.636 km
Speed
5.748 km/s
True Right ascension
02h 20m 46s
True Declination
0° 00' 00"
Sunlit
Object was in daylight at epoch
Visualization orbit readout
Latitude
Unknown
Longitude
Unknown
Altitude
Unknown
Speed
Unknown
Apparent Right ascension
Unknown
Apparent Declination
Unknown
Sunlit
N/A
Visualization observer readout
Local Sidereal Time
22:01:09
Azimuth
Unknown
Elevation
Unknown
Doppler factor
Unknown
Orbital elements
Apogee altitude
35,052.028 km
Perigee altitude
8,821.744 km
Semi-major axis
28,315.023 km
Eccentricity
0.46319
Inclination
13.3633°
RAAN
35.2427°
Arg. of periapsis
313.2145°
True anomaly
46.84635°
Mean anomaly
16.3758°
Eccentric anomaly
29.40624°
Mean motion
0.45553 °/min
Orbital period
790.29 mins
BSTAR
0
Loading maneuver chart data...
Computing Atmospheric mass density...

Documentation

Showing up to 5 results
|